CST,Max TemperatureF,Mean TemperatureF,Min TemperatureF,Max Dew PointF,MeanDew PointF,Min DewpointF,Max Humidity, Mean Humidity, Min Humidity, Max Sea Level PressureIn, Mean Sea Level PressureIn, Min Sea Level PressureIn, Max VisibilityMiles, Mean VisibilityMiles, Min VisibilityMiles, Max Wind SpeedMPH, Mean Wind SpeedMPH, Max Gust SpeedMPH,PrecipitationIn, CloudCover, Events, WindDirDegrees
2011-11-1,73,58,44,41,37,33,85,45,25,30.24,30.16,30.10,10,10,10,10,5,,0.00,0,,140
2011-11-2,75,60,48,61,49,39,88,61,48,30.17,30.05,29.90,10,10,10,16,6,31,0.02,2,Rain,166
2011-11-3,57,50,44,50,36,30,88,63,37,30.18,30.11,29.98,10,10,6,17,11,33,0.03,5,Rain,300
2011-11-4,60,48,37,43,39,32,86,67,51,30.27,30.21,30.17,10,10,10,10,3,,0.00,3,,103
2011-11-5,64,57,50,46,45,43,82,69,52,30.19,30.11,30.00,10,10,10,9,6,,0.00,4,,128
2011-11-6,70,63,57,55,51,46,84,70,58,30.15,30.11,30.04,10,10,10,10,7,,0.00,5,,137
2011-11-7,73,67,61,60,58,54,84,73,57,30.19,30.11,30.00,10,10,10,9,5,16,0.00,6,,134
2011-11-8,71,64,54,64,60,49,94,81,65,30.01,29.90,29.80,10,8,2,16,7,25,0.33,7,Rain-Thunderstorm,194
2011-11-9,57,50,43,46,36,29,80,58,33,30.32,30.17,29.97,10,10,10,13,8,25,0.00,2,,321
2011-11-10,60,48,35,35,29,21,89,58,22,30.40,30.31,30.22,10,10,10,9,4,20,0.00,0,,302
2011-11-11,66,48,30,34,29,25,92,50,21,30.22,30.13,30.05,10,10,10,16,4,25,0.00,0,,227
2011-11-12,66,56,45,52,45,31,76,63,48,30.06,29.98,29.87,10,10,2,16,5,26,0.00,2,,195
2011-11-13,78,71,64,63,59,53,78,66,52,29.87,29.82,29.74,10,10,10,20,12,30,0.00,3,,210
2011-11-14,79,75,71,65,63,61,81,70,58,29.86,29.80,29.75,10,10,10,15,12,28,0.00,6,Rain,211
2011-11-15,70,65,60,64,61,59,100,94,76,29.83,29.78,29.74,10,5,1,16,4,20,2.98,8,Rain-Thunderstorm,122
2011-11-16,62,52,42,61,51,31,96,78,43,30.30,29.90,29.74,10,9,2,15,5,24,0.11,7,Rain,42
2011-11-17,54,45,35,31,25,15,76,53,22,30.46,30.37,30.30,10,10,10,8,3,,0.00,0,,24
2011-11-18,55,44,34,30,26,22,79,48,33,30.33,30.20,30.04,10,10,10,13,6,20,0.00,1,,135
2011-11-19,69,60,50,61,51,31,78,71,48,30.04,30.00,29.94,10,10,10,13,7,20,0.00,8,Rain,157
2011-11-20,78,72,66,68,65,62,94,84,64,30.11,30.06,30.00,10,9,4,9,5,21,0.09,6,Rain-Thunderstorm,168
2011-11-21,68,65,62,65,63,61,100,96,88,30.15,30.06,29.83,10,5,0,20,7,33,4.39,8,Fog-Rain-Thunderstorm,106
2011-11-22,66,58,50,64,55,45,100,85,63,30.16,29.94,29.81,10,8,1,29,9,40,0.23,6,Rain-Thunderstorm,278
2011-11-23,54,49,44,46,45,42,100,83,69,30.32,30.27,30.17,10,9,7,7,3,16,0.00,6,,20
2011-11-24,52,48,44,47,45,43,93,86,80,30.38,30.31,30.24,10,9,5,7,2,,0.00,7,,141
2011-11-25,64,54,44,54,47,42,100,78,54,30.23,30.12,29.99,10,8,4,8,4,,0.00,4,Rain,138
2011-11-26,62,54,46,61,56,40,97,89,75,30.01,29.91,29.82,10,8,1,10,5,23,0.44,8,Rain,183
2011-11-27,46,42,39,39,33,26,82,67,58,30.17,30.11,30.01,10,10,8,9,6,21,0.00,8,Rain,337
2011-11-28,46,42,37,30,27,25,70,59,50,30.11,30.03,29.94,10,10,10,9,6,,0.00,5,,327
2011-11-29,57,47,37,33,28,21,77,53,29,30.20,30.06,29.94,10,10,10,12,8,20,0.00,0,,321
2011-11-30,55,42,28,31,25,16,89,61,23,30.26,30.20,30.14,10,10,10,7,2,,0.00,0,,118